This demonstration page uses our WeatherBlox Daily Observations layout. Learn more.

Left ArrowRight Arrow

38.88101, -77.10428

Hourly Observations for December 21, 2015

Temp ( °F °C ) Dew Point ( °F °C ) Humidity (%) Winds ( mph kmh ) Pressure ( in mb ) Visibility ( mi km ) Precip ( " mm )
12:52 am 00:52 Cloudy 41 5 34 1.1 76 76 S 12 19 30.42 1030 10 16 N/A
1:52 am 01:52 Cloudy 39 3.9 33 0.6 79 79 SSW 7 11 30.42 1030 10 16 N/A
2:52 am 02:52 Cloudy 39 3.9 32 undefined 76 76 SSW 7 11 30.40 1030 10 16 N/A
3:52 am 03:52 Cloudy 40 4.4 32 undefined 73 73 SSW 9 15 30.37 1028 10 16 N/A
4:52 am 04:52 Cloudy 41 5 31 -0.6 67 67 S 12 19 30.35 1028 10 16 N/A
5:52 am 05:52 Cloudy 41 5 31 -0.6 67 67 S 12 19 30.35 1028 10 16 N/A
6:52 am 06:52 Cloudy 42 5.6 30 -1.1 62 62 S 12 19 30.35 1028 10 16 N/A
7:52 am 07:52 Cloudy 40 4.4 30 -1.1 68 68 S 7 11 30.34 1028 10 16 N/A
8:52 am 08:52 Cloudy 44 6.7 31 -0.6 60 60 SSW 10 17 30.33 1027 10 16 N/A
9:52 am 09:52 Cloudy 48 8.9 30 -1.1 50 50 S 15 24 30.31 1026 10 16 N/A
10:52 am 10:52 Cloudy 50 10 28 -2.2 43 43 SSW 14 22 30.31 1026 10 16 N/A
11:52 am 11:52 Cloudy 51 10.6 31 -0.6 46 46 SSW 12 19 30.27 1025 10 16 N/A
12:52 pm 12:52 Cloudy 55 12.8 36 2.2 49 49 SSW 12 19 30.23 1024 10 16 N/A
1:52 pm 13:52 Cloudy 57 13.9 43 6.1 60 60 SSW 18 30 30.20 1023 10 16 N/A
2:52 pm 14:52 Cloudy 58 14.4 44 6.7 60 60 SSW 16 26 30.19 1022 10 16 N/A
3:52 pm 15:52 Cloudy 58 14.4 43 6.1 58 58 S 17 28 30.15 1021 10 16 N/A
4:52 pm 16:52 Cloudy 57 13.9 44 6.7 62 62 SSW 15 24 30.16 1021 10 16 N/A
5:52 pm 17:52 Cloudy 57 13.9 44 6.7 62 62 SSW 10 17 30.15 1021 10 16 N/A
6:52 pm 18:52 Cloudy 57 13.9 45 7.2 64 64 S 13 20 30.14 1021 10 16 N/A
7:52 pm 19:52 Cloudy 57 13.9 46 7.8 67 67 SSW 12 19 30.14 1021 10 16 N/A
8:52 pm 20:52 Mostly Cloudy 56 13.3 46 7.8 70 70 SSW 13 20 30.14 1021 10 16 N/A
9:52 pm 21:52 Mostly Cloudy 56 13.3 46 7.8 70 70 SSW 12 19 30.14 1021 10 16 N/A
10:52 pm 22:52 Mostly Cloudy 55 12.8 46 7.8 72 72 S 12 19 30.13 1020 10 16 N/A
11:52 pm 23:52 Cloudy 54 12.2 46 7.8 75 75 S 10 17 30.12 1020 10 16 N/A

Powered by AerisWeather